Observations for Trim Market St
| Time | AQI | Temp °C | Hum % | Pres Pa | CO μg/m³ | H₂S μg/m³ | NO μg/m³ | NO₂ μg/m³ | O₃ μg/m³ | SO₂ μg/m³ | PM1 μg/m³ | PM2.5 μg/m³ | PM10 μg/m³ |
|---|---|---|---|---|---|---|---|---|---|---|---|---|---|
| Tuesday 18 August 2026 | |||||||||||||
| 17:39 | 2 | 22 | 52 | 58,112 | 0 | 0 | 3.76 | 27.58 | 59.47 | 0 | 0 | 2.86 | 3.87 |
| 17:38 | 2 | 22 | 52 | 58,347 | 0 | 0 | 3.44 | 23.95 | 63.68 | 0 | 0 | 2.35 | 2.4 |
| 17:34 | 2 | 22.2 | 52 | 59,312 | 0 | 0 | 2.72 | 14.34 | 75.25 | 0 | 0 | 2.89 | 3.85 |
| 17:33 | 2 | 22.2 | 52 | 59,535 | 0 | 0 | 2.72 | 15.4 | 72.93 | 0 | 0 | 2.38 | 2.62 |
| 17:31 | 2 | 22.3 | 52 | 59,966 | 0 | 0 | 2.76 | 20.78 | 68.52 | 0 | 0 | 1.87 | 2.06 |
| 17:28 | 2 | 22.3 | 51 | 60,763 | 0 | 0 | 2.79 | 14.09 | 76.71 | 0 | 0 | 2.4 | 3.1 |
| 17:19 | 2 | 22.5 | 50 | 62,266 | 0 | 0 | 2.75 | 12.91 | 76.07 | 0 | 0 | 1.92 | 2.32 |
| 17:18 | 2 | 22.5 | 50 | 62,337 | 0 | 0 | 2.74 | 15.83 | 73.8 | 0 | 0 | 2.44 | 2.68 |
| 17:17 | 2 | 22.5 | 50 | 62,472 | 0 | 0 | 2.71 | 11.84 | 81.44 | 0 | 0 | 2.45 | 3.06 |
| 17:16 | 2 | 22.5 | 50 | 62,539 | 0 | 0 | 2.66 | 13.16 | 75.83 | 0 | 0 | 2.45 | 3.06 |
| 17:15 | 2 | 22.5 | 50 | 62,630 | 0 | 0 | 2.76 | 15.41 | 75.15 | 0 | 0 | 2.97 | 3.05 |
| 17:14 | 2 | 22.6 | 50 | 62,786 | 0 | 0 | 2.72 | 11.73 | 80.95 | 0 | 0.71 | 3.49 | 3.79 |
| 17:13 | 2 | 22.6 | 50 | 62,956 | 0 | 0 | 2.68 | 13.78 | 78.07 | 0 | 0 | 2.47 | 2.71 |
| 17:12 | 2 | 22.6 | 50 | 63,175 | 0 | 0 | 2.65 | 21.6 | 67.53 | 0 | 0 | 2.99 | 3.79 |
| 17:11 | 2 | 22.7 | 50 | 63,311 | 0 | 0 | 2.66 | 11.58 | 84.1 | 0 | 0 | 2.99 | 4.53 |
| 17:10 | 2 | 22.7 | 49 | 63,396 | 0 | 0 | 2.65 | 11.93 | 84.05 | 0 | 0 | 2.99 | 3.78 |
| 17:09 | 2 | 22.7 | 49 | 63,513 | 0 | 0 | 2.66 | 11.52 | 84.97 | 0 | 0 | 2.48 | 2.73 |
| 17:08 | 2 | 22.8 | 49 | 63,623 | 0 | 0 | 2.7 | 14.12 | 75.87 | 0 | 0 | 2.48 | 2.73 |
| 17:07 | 2 | 22.8 | 49 | 63,699 | 0.92 | 1.62 | 2.73 | 12.58 | 71.18 | 0 | 0 | 2.48 | 2.73 |
| 17:06 | 2 | 22.8 | 49 | 63,726 | 0 | 0 | 2.88 | 12.21 | 81.46 | 0 | 0.71 | 2.48 | 2.73 |